Flag for U.S.A. Weather past 2 weeks in Fort Bragg, California, U.S.A.

Now
73 °F

Sunny.


Feels Like: 77 °F
Forecast: 56 / 67 °F
Wind: 3 mph from North

Location: Ukiah Municipal

Current Time: Aug 23, 2014 at 11:21:14 AM

Latest Report: Aug 23, 2014 at 10:56 AM


Visibility: 10 mi

Pressure: 29.89 "Hg

Humidity: 53%

Dew point: 55 °F

Location of Fort BraggLocation

Historic Weather in Fort Bragg — Graph

°F

Fort Bragg temperature yesterday

Maximum temperature yesterday: 89 °F (at 1:56 PM)
Minimum temperature yesterday: 57 °F (at 5:56 AM)
Average temperature yesterday: 72 °F

Past Weeks' High & Low Weather Summary

 TemperatureHumidityPressure
High98 °F (Aug 17, 3:56 PM)93% (Aug 23, 6:56 AM)30.02 "Hg (Aug 23, 6:56 AM)
Low53 °F (Aug 17, 6:56 AM)11% (Aug 17, 4:56 PM)29.71 "Hg (Aug 18, 3:56 PM)
Average72 °F52%29.88 "Hg
* Reported Aug 8 9:56 AM — Aug 23 9:56 AM, Fort Bragg, Weather by CustomWeather, © 2014

Note: Actual official high and low records may vary slightly from our data, if they occured in-between our weather recording intervals... More about our weather records

Advertising

Fort Bragg weather history for previous 24 hours

 ConditionsComfort  
Time TempWeatherWind HumidityBarometerVisibility
9:56 AM
Aug 23
68 °FSunny.3 mph61%29.91 "Hg10 mi
8:56 AM62 °FSunny.No wind73%29.92 "Hg10 mi
7:56 AM56 °FFog.No wind93%29.91 "Hg5 mi
6:56 AM55 °FPassing clouds.3 mph93%29.90 "Hg7 mi
5:56 AM56 °FClear.3 mph84%29.89 "Hg10 mi
4:56 AM57 °FClear.No wind87%29.88 "Hg10 mi
3:56 AM58 °FClear.3 mph84%29.88 "Hg10 mi
2:56 AM59 °FClear.6 mph81%29.87 "Hg10 mi
1:56 AM61 °FClear.3 mph75%29.87 "Hg10 mi
12:56 AM63 °FClear.3 mph73%29.86 "Hg10 mi
11:56 PM
Aug 22
65 °FClear.No wind56%29.86 "Hg10 mi
10:56 PM66 °FClear.No wind61%29.86 "Hg10 mi
9:56 PM69 °FClear.No wind53%29.86 "Hg10 mi
8:56 PM73 °FSunny.No wind44%29.84 "Hg10 mi
7:56 PM76 °FSunny.3 mph40%29.82 "Hg10 mi
6:56 PM84 °FSunny.5 mph25%29.80 "Hg10 mi
5:56 PM86 °FSunny.8 mph26%29.80 "Hg10 mi
4:56 PM87 °FSunny.13 mph28%29.80 "Hg10 mi
3:56 PM89 °FSunny.9 mph22%29.80 "Hg10 mi
2:56 PM89 °FSunny.13 mph22%29.81 "Hg10 mi
1:56 PM89 °FSunny.8 mph20%29.81 "Hg10 mi
12:56 PM88 °FSunny.13 mph20%29.83 "Hg10 mi
11:56 AM82 °FSunny.3 mph33%29.86 "Hg10 mi
Weather by CustomWeather, © 2014

See weather overviewHow to use our weather pages